1361923229157,45.0884
1361923289157,45.1476
1361923349157,45.2758
1361923409157,45.2152
1361923469157,45.0492
1361923529157,45.0613
1361923589157,45.1474
1361923649157,44.9470
1361923709157,45.2613
1361923769157,45.2346
1361923829157,45.0385
1361923889157,45.1482
1361923949157,45.1078
1361924009157,45.3463
1361924069157,45.2568
1361924129157,45.1211
1361924189157,45.0616
1361924249157,45.2249
1361924309157,45.1513
1361924369157,45.1439
1361924429157,45.2703
1361924489157,45.1675
1361924549157,45.1662
1361924609157,45.2525
1361924669157,45.2923
1361924729157,45.1826
1361924789157,45.3356
1361924849157,45.1544
1361924909157,45.2823
1361924969157,45.1161
1361925029157,45.1687
1361925089157,45.3546
1361925149157,45.1953
1361925209157,45.3284
1361925269157,45.2651
1361925329157,45.3664
1361925389157,45.3356
1361925449157,45.3409
1361925509157,45.4424
1361925569157,45.3377
1361925629157,45.3092
1361925689157,45.2309
1361925749157,45.5014
1361925809157,45.5323
1361925869157,45.5376
1361925929157,45.4123
1361925989157,45.3958
1361926049157,45.4433
1361926109157,45.4249
1361926169157,45.4092
1361926229157,45.2928
1361926289157,45.4300
1361926349157,45.3990
1361926409157,45.3391
1361926469157,45.2032
1361926529157,45.3210
1361926589157,45.4051
1361926649157,45.3546
1361926709157,45.6155
1361926769157,45.3922
1361926829168,45.3302
1361926889168,45.3350
1361926949168,45.2283
1361927009168,45.2628
1361927069168,45.1335
1361927129168,45.0774
1361927189168,45.3804
1361927249168,45.3460
1361927309168,45.4220
1361927369168,45.2039
1361927429168,45.3714
1361927489168,45.2780
1361927549168,45.3233
1361927609168,45.2401
1361927669168,45.3566
1361927729168,45.2948
1361927789168,45.3428
1361927849168,45.4297
1361927909168,45.3383
1361927969168,45.3737
1361928029168,45.1141
1361928089168,45.2799
1361928149168,45.3176
1361928209168,45.2010
1361928269168,45.2477
1361928329168,45.1546
1361928389168,45.3359
1361928449168,45.2739
1361928509168,45.3898
1361928569168,45.3187
1361928629168,45.3992
1361928689168,45.4298
1361928749168,45.3159
1361928809168,45.4486
1361928869168,45.3160
1361928929168,45.2422
1361928989168,45.1886
1361929049168,45.1999
1361929109168,45.3587
1361929169168,45.0582
1361929229168,45.1989
1361929289168,45.2603
1361929349168,45.2695
1361929409168,45.3166
1361929469168,45.3140
1361929529168,45.1371
1361929589168,45.3156
1361929649168,45.2740
1361929709168,45.4337
1361929769168,45.2251
1361929829168,45.2061
1361929889168,45.2078
1361929949168,45.2403
1361930009168,45.2037
1361930069168,45.1714
1361930129168,45.3587
1361930189168,45.4458
1361930249168,45.3567
1361930309168,45.4026
1361930369168,45.2737
1361930429179,45.3517
1361930489179,45.2310
1361930549179,45.5110
1361930609179,45.4956
1361930669179,45.3316
1361930729179,45.2680
1361930789179,45.4034
1361930849179,45.2578
1361930909179,45.2781
1361930969179,45.4297
1361931029179,45.2798
1361931089179,45.8386
1361931149179,45.2966
1361931209179,45.3105
1361931269179,45.3014
1361931329179,45.2839
1361931389179,45.4001
1361931449179,45.3828
1361931509179,45.4740
1361931569179,45.5228
1361931629179,45.4150
1361931689179,45.4675
1361931749179,45.2694
1361931809179,45.3930
1361931869179,45.2556
1361931929179,45.2402
1361931989179,45.2698
1361932049179,45.4032
1361932109179,45.2668
1361932169179,45.3417
1361932229179,45.1733
1361932289179,45.2147
1361932349179,45.3129
1361932409179,45.4001
1361932469179,45.3842
1361932529179,45.3493
1361932589179,45.2536
1361932649179,45.4231
1361932709179,45.4311
1361932769179,45.3465
1361932829179,45.4620
1361932889179,45.3815
1361932949179,45.2601
1361933009179,45.3894
1361933069179,45.2810
1361933129179,45.3526
1361933189179,45.3301
1361933249179,45.3197
1361933309179,45.3873
1361933369179,45.3680
1361933429179,45.2739
1361933489179,45.3433
1361933549179,45.4105
1361933609179,45.2572
1361933669179,45.2638
1361933729179,45.1645
1361933789179,45.1438
1361933849179,45.1355
1361933909179,45.0572
1361933969179,45.2637
1361934029190,45.3687
1361934089190,45.2884
1361934149190,45.3311
1361934209190,45.2814
1361934269190,45.2644
1361934329190,45.1926
1361934389190,45.4268
1361934449190,45.1988
1361934509190,45.2452
1361934569190,45.3879
1361934629190,45.2440
1361934689190,45.2891
1361934749190,45.2293
1361934809190,45.2430
1361934869190,45.2396
1361934929190,45.2508
1361934989190,45.0530
1361935049190,45.2145
1361935109190,45.2113
1361935169190,45.2050
1361935229190,45.2598
1361935289190,45.2008
1361935349190,45.1608
1361935409190,45.1800
1361935469190,45.2099
1361935529190,45.1257
1361935589190,45.1461
1361935649190,45.1721
1361935709190,45.1566
1361935769190,45.1983
1361935829190,45.4714
1361935889190,45.1178
1361935949190,45.2030
1361936009190,45.3064
1361936069190,45.2329
1361936129190,45.2505
1361936189190,45.2159
1361936249190,45.0125
1361936309190,45.1212
1361936369190,45.2399
1361936429190,45.1760
1361936489190,45.3164
1361936549190,45.1999
1361936609190,45.1545
1361936669190,45.2171
1361936729190,45.3202
1361936789190,45.3731
1361936849190,45.2950
1361936909190,45.2554
1361936969190,45.2732
1361937029190,45.1900
1361937089190,45.2617
1361937149190,45.2045
1361937209190,45.2548
1361937269190,45.2032
1361937329190,45.3427
1361937389190,45.2131
1361937449190,45.2492
1361937509190,45.3349
1361937569190,45.0461
1361937629201,45.3826
1361937689201,45.1641
1361937749201,45.2537
1361937809201,45.0968
1361937869201,45.0817
1361937929201,45.2112
1361937989201,45.2815
1361938049201,45.1950
1361938109201,45.2613
1361938169201,45.1706
1361938229201,45.1653
1361938289201,45.1201
1361938349201,45.2885
1361938409201,45.2410
1361938469201,45.1422
1361938529201,45.2180
1361938589201,45.1897
1361938649201,45.2536
1361938709201,45.2207
1361938769201,45.1497
1361938829201,45.2972
1361938889201,45.1046
1361938949201,45.2431
1361939009201,45.0886
1361939069201,45.2198
1361939129201,45.0727
1361939189201,45.3022
1361939249201,45.0727
1361939309201,45.1660
1361939369201,45.1165
1361939429201,45.8652
1361939489201,45.0395
1361939549201,45.1622
1361939609201,45.2388
1361939669201,45.0692
1361939729201,45.1498
1361939789201,45.1286
1361939849201,45.1418
1361939909201,45.0949
1361939969201,45.0349
1361940029201,45.2210
1361940089201,45.0907
1361940149201,45.1306
1361940209201,45.2117
1361940269201,45.2206
1361940329201,45.1978
1361940389201,45.2709
1361940449201,45.3182
1361940509201,45.1888
1361940569201,45.0841
1361940629201,45.3530
1361940689201,45.2166
1361940749201,45.2217
1361940809201,45.0257
1361940869201,45.1839
1361940929201,45.1278
1361940989201,45.0350
1361941049201,45.1824
1361941109201,45.1439
1361941169201,45.1887
1361941229212,45.2433
1361941289212,45.2941
1361941349212,45.2616
1361941409212,45.3145
1361941469212,45.1690
1361941529212,45.0784
1361941589212,45.1660
1361941649212,45.1802
1361941709212,45.1190
1361941769212,45.1912
1361941829212,45.1323
1361941889212,45.0212
1361941949212,45.0078
1361942009212,45.2147
1361942069212,45.1116
1361942129212,45.1572
1361942189212,45.0941
1361942249212,45.0112
1361942309212,45.1403
1361942369212,45.1576
1361942429212,45.0997
1361942489212,45.0615
1361942549212,45.0112
1361942609212,45.1229
1361942669212,45.2079
1361942729212,45.2456
1361942789212,45.1471
1361942849212,45.1995
1361942909212,45.2529
1361942969212,45.2065
1361943029212,45.1360
1361943089212,45.1716
1361943149212,45.1769
1361943209212,45.2067
1361943269212,45.1955
1361943329212,45.1198
1361943389212,45.2541
1361943449212,45.1937
1361943509212,45.2018
1361943569212,45.3267
1361943629212,45.1460
1361943689212,45.2515
1361943749212,45.1101
1361943809212,45.1033
1361943869212,45.2806
1361943929212,45.1992
1361943989212,45.3002
1361944049212,45.2159
1361944109212,45.1855
1361944169212,45.1309
1361944229212,45.3253
1361944289212,45.3381
1361944349212,45.3598
1361944409212,45.2832
1361944469212,45.4327
1361944529212,45.1341
1361944589212,45.3765
1361944649212,45.3558
1361944709212,45.2952
1361944769212,45.4814
1361944829223,45.2404
1361944889223,45.2337
1361944949223,45.3592
1361945009223,45.2994
1361945069223,45.5172
1361945129223,45.2729
1361945189223,45.2027
1361945249223,45.3574
1361945309223,45.3052
1361945369223,45.2740
1361945429223,45.4533
1361945489223,45.1372
1361945549223,45.3295
1361945609223,45.4027
1361945669223,45.2999
1361945729223,45.2870
1361945789223,45.1342
1361945849223,45.1443
1361945909223,45.1936
1361945969223,45.2859
1361946029223,45.2253
1361946089223,45.1723
1361946149223,45.1779
1361946209223,45.1711
1361946269223,45.1593
1361946329223,45.2285
1361946389223,45.3254
1361946449223,45.1532
1361946509223,45.2676
1361946569223,45.2752
1361946629223,45.2741
1361946689223,45.1738
1361946749223,45.1840
1361946809223,45.0020
1361946869223,45.1857
1361946929223,45.1624
1361946989223,45.2797
1361947049223,45.1781
1361947109223,45.1600
1361947169223,45.2800
1361947229223,45.3152
1361947289223,45.2350
1361947349223,45.0652
1361947409223,45.2616
1361947469223,45.4284
1361947529223,45.3102
1361947589223,45.2154
1361947649223,45.2843
1361947709223,45.3270
1361947769223,45.2229
1361947829223,45.2856
1361947889223,45.3209
1361947949223,45.0868
1361948009223,45.3259
1361948069223,45.3807
1361948129223,45.2227
1361948189223,45.4444
1361948249223,45.3647
1361948309223,45.4548
1361948369223,45.3764
1361948429234,45.3785
1361948489234,45.2312
1361948549234,45.1298
1361948609234,45.2639
1361948669234,45.2509
1361948729234,45.4341
1361948789234,45.3326
1361948849234,45.3589
1361948909234,45.3221
1361948969234,45.3245
1361949029234,45.3157
1361949089234,45.3658
1361949149234,45.2342
1361949209234,45.2953
1361949269234,45.4039
1361949329234,45.4490
1361949389234,45.4043
1361949449234,45.3344
1361949509234,45.4656
1361949569234,45.4450
1361949629234,45.3503
1361949689234,45.4725
1361949749234,45.5194
1361949809234,45.4722
1361949869234,45.5927
1361949929234,45.4924
1361949989234,45.3334
1361950049234,45.4712
1361950109234,45.4835
1361950169234,45.5777
1361950229234,45.4815
1361950289234,45.6226
1361950349234,45.5511
1361950409234,45.6836
1361950469234,45.5695
1361950529234,45.5388
1361950589234,45.5649
1361950649234,45.6847
1361950709234,45.6318
1361950769234,45.6180
1361950829234,45.6388
1361950889234,45.4927
1361950949234,45.5548
1361951009234,45.5230
1361951069234,45.5156
1361951129234,45.5582
1361951189234,45.7213
1361951249234,45.5125
1361951309234,45.5506
1361951369234,45.6668
1361951429234,45.5888
1361951489234,45.5686
1361951549234,45.6482
1361951609234,45.5751
1361951669234,45.5769
1361951729234,45.6638
1361951789234,45.5698
1361951849234,45.6376
1361951909234,45.5999
1361951969234,45.7350
1361952029245,45.6748
1361952089245,45.6188
1361952149245,45.5128
1361952209245,45.5905
1361952269245,45.7050
1361952329245,45.8212
1361952389245,45.5962
1361952449245,45.7117
1361952509245,45.6562
1361952569245,45.8325
1361952629245,45.7060
1361952689245,45.5270
1361952749245,45.6821
1361952809245,45.7909
1361952869245,45.6752
1361952929245,45.7369
1361952989245,45.9397
1361953049245,45.6876
1361953109245,45.5251
1361953169245,45.6614
1361953229245,45.6550
1361953289245,45.5965
1361953349245,45.6354
1361953409245,45.7291
1361953469245,45.6438
1361953529245,45.8816
1361953589245,45.8983
1361953649245,45.6474
1361953709245,45.7745
1361953769245,45.6262
1361953829245,45.5035
1361953889245,45.8299
1361953949245,45.6412
1361954009245,45.8054
1361954069245,45.7798
1361954129245,45.6554
1361954189245,45.8542
1361954249245,45.7318
1361954309245,45.6440
1361954369245,45.8060
1361954429245,45.6811
1361954489245,45.6893
1361954549245,45.8709
1361954609245,45.6824
1361954669245,45.7764
1361954729245,45.7725
1361954789245,45.7738
1361954849245,45.6655
1361954909245,45.8464
1361954969245,45.8420
1361955029245,45.8970
1361955089245,45.7384
1361955149245,45.7181
1361955209245,45.8433
1361955269245,45.7707
1361955329245,45.6559
1361955389245,46.0038
1361955449245,45.8005
1361955509245,45.7515
1361955569245,45.8474
1361955629256,45.8262
1361955689256,45.9064
1361955749256,45.8465
1361955809256,45.8929
1361955869256,45.8842
1361955929256,45.8629
1361955989256,46.0468
1361956049256,45.7656
1361956109256,45.8767
1361956169256,45.8899
1361956229256,45.9664
1361956289256,45.7662
1361956349256,45.9087
1361956409256,45.8389
1361956469256,45.8386
1361956529256,45.9526
1361956589256,45.8420
1361956649256,45.8026
1361956709256,45.8769
1361956769256,45.7597
1361956829256,46.0277
1361956889256,45.7944
1361956949256,45.8295
1361957009256,45.7782
1361957069256,45.7664
1361957129256,45.7305
1361957189256,45.9558
1361957249256,45.8456
1361957309256,45.8286
1361957369256,45.8369
1361957429256,45.8104
1361957489256,45.9785
1361957549256,45.8302
1361957609256,45.9862
1361957669256,45.8490
1361957729256,45.8609
1361957789256,45.9281
1361957849256,45.8412
1361957909256,45.9012
1361957969256,45.8344
1361958029256,45.8746
1361958089256,45.7933
1361958149256,45.9223
1361958209256,45.9720
1361958269256,45.8438
1361958329256,45.7797
1361958389256,45.8332
1361958449256,45.8135
1361958509256,45.8101
1361958569256,45.9068
1361958629256,45.7627
1361958689256,45.8086
1361958749256,45.8729
1361958809256,45.8340
1361958869256,45.7297
1361958929256,45.8745
1361958989256,45.7761
1361959049256,45.8056
1361959109256,45.9634
1361959169256,45.8998
1361959229267,45.9052
1361959289267,45.7679
1361959349267,45.8015
1361959409267,45.7809
1361959469267,45.9355
1361959529267,45.8480
1361959589267,45.6900
1361959649267,45.7525
1361959709267,45.7622
1361959769267,45.7455
1361959829267,45.9107
1361959889267,45.8838
1361959949267,45.8257
1361960009267,45.8462
1361960069267,45.6715
1361960129267,45.6539
1361960189267,45.8404
1361960249267,45.8191
1361960309267,45.7252
1361960369267,45.8573
1361960429267,45.8126
1361960489267,45.8339
1361960549267,45.7451
1361960609267,45.8444
1361960669267,45.8593
1361960729267,45.8634
1361960789267,45.6438
1361960849267,45.9715
1361960909267,45.7005
1361960969267,45.9196
1361961029267,45.7124
1361961089267,45.8477
1361961149267,45.8591
1361961209267,45.8138
1361961269267,45.7333
1361961329267,45.9621
1361961389267,45.8472
1361961449267,45.7446
1361961509267,45.9350
1361961569267,45.8674
1361961629267,46.2799
1361961689267,45.8480
1361961749267,45.8978
1361961809267,45.8077
1361961869267,45.9353
1361961929267,45.8798
1361961989267,45.8187
1361962049267,45.8642
1361962109267,45.9265
1361962169267,45.8339
1361962229267,45.6867
1361962289267,45.9206
1361962349267,45.9901
1361962409267,45.8131
1361962469267,45.8904
1361962529267,45.8219
1361962589267,45.9106
1361962649267,45.8506
1361962709267,45.9404
1361962769267,45.9186
1361962829278,45.9357
1361962889278,45.7762
1361962949278,45.8182
1361963009278,46.0735
1361963069278,45.7836
1361963129278,45.9353
1361963189278,45.9659
1361963249278,45.8173
1361963309278,45.9347
1361963369278,45.9699
1361963429278,45.8172
1361963489278,45.9826
1361963549278,45.9392
1361963609278,45.8105
1361963669278,45.7675
1361963729278,45.9285
1361963789278,45.8792
1361963849278,45.9254
1361963909278,45.8911
1361963969278,45.9272
1361964029278,45.7880
1361964089278,45.9102
1361964149278,45.9400
1361964209278,45.9114
1361964269278,45.8259
1361964329278,45.9917
1361964389278,45.9004
1361964449278,45.8699
1361964509278,45.9517
1361964569278,45.9386
1361964629278,45.9328
1361964689278,46.0751
1361964749278,45.9528
1361964809278,45.9920
1361964869278,46.1562
1361964929278,45.9382
1361964989278,45.9875
1361965049278,45.8886
1361965109278,45.8215
1361965169278,45.8235
1361965229278,46.0929
1361965289278,46.0007
1361965349278,46.0347
1361965409278,45.9220
1361965469278,45.9184
1361965529278,46.1237
1361965589278,46.0604
1361965649278,45.9905
1361965709278,46.1328
1361965769278,45.9730
1361965829278,46.1467
1361965889278,45.9460
1361965949278,46.0720
1361966009278,45.9484
1361966069278,45.8575
1361966129278,45.8570
1361966189278,45.8955
1361966249278,45.9068
1361966309278,45.9438
1361966369278,45.9619
1361966429289,45.9172
1361966489289,45.9824
1361966549289,45.9530
1361966609289,45.9808
1361966669289,45.8245
1361966729289,46.0393
1361966789289,45.9860
1361966849289,45.8526
1361966909289,46.0831
1361966969289,45.8145
1361967029289,45.8455
1361967089289,45.9444
1361967149289,45.8753
1361967209289,45.9694
1361967269289,45.9263
1361967329289,45.8126
1361967389289,45.9993
1361967449289,45.7886
1361967509289,46.0747
1361967569289,46.0109
1361967629289,46.1226
1361967689289,45.8516
1361967749289,45.8524
1361967809289,45.8535
1361967869289,45.9408
1361967929289,45.9065
1361967989289,45.9377
1361968049289,45.9179
1361968109289,45.9881
1361968169289,45.8461
1361968229289,45.9224
1361968289289,45.8883
1361968349289,45.8877
1361968409289,46.0075
1361968469289,45.9381
1361968529289,45.9984
1361968589289,45.9532
1361968649289,46.0214
1361968709289,45.9748
1361968769289,45.9007
1361968829289,45.7942
1361968889289,45.7548
1361968949289,45.9744
1361969009289,46.0006
1361969069289,45.9982
1361969129289,45.8746
1361969189289,45.8715
1361969249289,46.0125
1361969309289,45.8851
1361969369289,45.7452
1361969429289,45.8593
1361969489289,45.8038
1361969549289,45.8091
1361969609289,45.8129
1361969669289,45.8550
1361969729289,45.8100
1361969789289,45.8009
1361969849289,45.7788
1361969909289,45.6991
1361969969289,45.6564
1361970029300,45.8426
1361970089300,45.8573
1361970149300,45.9223
1361970209300,45.7330
1361970269300,45.8665
1361970329300,45.8467
1361970389300,45.7731
1361970449300,45.8085
1361970509300,45.7533
1361970569300,45.7517
1361970629300,45.8484
1361970689300,45.7320
1361970749300,45.6823
1361970809300,45.6019
1361970869300,45.8528
1361970929300,45.6465
1361970989300,45.9535
1361971049300,45.6984
1361971109300,45.7576
1361971169300,45.9055
1361971229300,45.7454
1361971289300,45.8084
1361971349300,45.8817
1361971409300,45.9022
1361971469300,45.7235
1361971529300,45.8802
1361971589300,45.8368
1361971649300,45.8211
1361971709300,45.7821
1361971769300,45.7913
1361971829300,45.7573
1361971889300,45.7720
1361971949300,45.9000
1361972009300,45.8774
1361972069300,45.7949
1361972129300,45.8537
1361972189300,45.8923
1361972249300,45.9280
1361972309300,45.8194
1361972369300,45.8439
1361972429300,45.6665
1361972489300,45.9512
1361972549300,45.9126
1361972609300,45.9009
1361972669300,45.8968
1361972729300,45.8062
1361972789300,45.8968
1361972849300,46.0227
1361972909300,45.9806
1361972969300,46.0620
1361973029300,45.8164
1361973089300,45.9154
1361973149300,45.7817
1361973209300,45.9537
1361973269300,45.9440
1361973329300,45.8903
1361973389300,45.9679
1361973449300,45.8761
1361973509300,45.9242
1361973569300,46.0489
1361973629311,45.8162
1361973689311,45.9594
1361973749311,46.0159
1361973809311,45.9293
1361973869311,45.9249
1361973929311,46.0537
1361973989311,45.8754
1361974049311,46.0222
1361974109311,45.8956
1361974169311,45.9784
1361974229311,45.9239
1361974289311,46.0000
1361974349311,45.9671
1361974409311,46.0282
1361974469311,45.7657
1361974529311,46.0410
1361974589311,46.2226
1361974649311,46.0376
1361974709311,46.0887
1361974769311,45.9996
1361974829311,46.0435
1361974889311,45.8244
1361974949311,46.1066
1361975009311,46.0207
1361975069311,46.0624
1361975129311,45.9113
1361975189311,46.0717
1361975249311,45.9595
1361975309311,45.9919
1361975369311,45.9982
1361975429311,46.0789
1361975489311,46.0365
1361975549311,46.0113
1361975609311,46.0346
1361975669311,45.8926
1361975729311,46.0191
1361975789311,46.0654
1361975849311,45.8857
1361975909311,46.0384
1361975969311,45.9789
1361976029311,45.9283
1361976089311,46.0417
1361976149311,45.9630
1361976209311,46.1654
1361976269311,45.9459
1361976329311,46.0049
1361976389311,46.0959
1361976449311,45.8055
1361976509311,46.0373
1361976569311,46.0095
1361976629311,45.8655
1361976689311,45.8779
1361976749311,46.0761
1361976809311,46.0141
1361976869311,46.0461
1361976929311,45.9848
1361976989311,45.9377
1361977049311,45.8783
1361977109311,45.9940
1361977169311,45.9913
1361977229322,45.9717
1361977289322,45.9764
1361977349322,45.9743
1361977409322,46.0412
1361977469322,46.0894
1361977529322,45.9804
1361977589322,46.0491
1361977649322,45.9645
1361977709322,45.9871
1361977769322,46.0452
1361977829322,46.0196
1361977889322,46.1160
1361977949322,46.0146
1361978009322,46.0216
1361978069322,45.9310
1361978129322,46.1156
1361978189322,46.3384
1361978249322,45.9376
1361978309322,45.9969
1361978369322,45.9493
1361978429322,45.9934
1361978489322,45.9218
1361978549322,45.8001
1361978609322,46.1101
1361978669322,45.9939
1361978729322,45.9762
1361978789322,45.8696
1361978849322,45.9394
1361978909322,45.9946
1361978969322,46.0153
1361979029322,45.9485
1361979089322,46.0546
1361979149322,46.0477
1361979209322,46.0050
1361979269322,45.9820
1361979329322,46.0886
1361979389322,46.0885
1361979449322,46.1221
1361979509322,45.8845
1361979569322,46.1004
1361979629322,46.1503
1361979689322,46.0571
1361979749322,46.1608
1361979809322,46.0866
1361979869322,46.0406
1361979929322,46.0689
1361979989322,46.2114
1361980049322,46.1258
1361980109322,46.1810
1361980169322,46.1607
1361980229322,46.2108
1361980289322,46.2926
1361980349322,46.2784
1361980409322,46.0961
1361980469322,46.0367
1361980529322,46.1734
1361980589322,46.1575
1361980649322,46.1814
1361980709322,46.2106
1361980769322,46.2066
1361980829332,46.0788
1361980889332,46.2410
1361980949332,46.2130
1361981009332,46.1166
1361981069332,46.2178
1361981129332,46.0798
1361981189332,46.2398
1361981249332,46.1356
1361981309332,46.1231
1361981369332,46.1402
1361981429332,46.1108
1361981489332,46.2327
1361981549332,46.2729
1361981609332,46.2533
1361981669332,46.2634
1361981729332,46.2066
1361981789332,46.2658
1361981849332,46.3659
1361981909332,46.3492
1361981969332,46.2641
1361982029332,46.1457
1361982089332,46.3161
1361982149332,46.4242
1361982209332,46.3701
1361982269332,46.4590
1361982329332,46.2999
1361982389332,46.2006
1361982449332,46.1774
1361982509332,46.3517
1361982569332,46.3051
1361982629332,46.4316
1361982689332,46.2958
1361982749332,46.3034
1361982809332,46.3257
1361982869332,46.3391
1361982929332,46.2575
1361982989332,46.4314
1361983049332,46.3485
1361983109332,46.4681
1361983169332,46.3349
1361983229332,46.4047
1361983289332,46.2834
1361983349332,46.2746
1361983409332,46.3264
1361983469332,46.3343
1361983529332,46.4926
1361983589332,46.3014
1361983649332,46.4123
1361983709332,46.2467
1361983769332,46.3227
1361983829332,46.3596
1361983889332,46.2994
1361983949332,46.4051
1361984009332,46.3542
1361984069332,46.3735
1361984129332,46.2948
1361984189332,46.2987
1361984249332,46.4198
1361984309332,46.3178
1361984369332,46.2854
1361984429343,46.2572
1361984489343,46.1812
1361984549343,46.3467
1361984609343,46.3141
1361984669343,46.2991
1361984729343,46.3679
1361984789343,46.2627
1361984849343,46.3099
1361984909343,46.2393
1361984969343,46.3238
1361985029343,46.2234
1361985089343,46.2076
1361985629343,46.1368
1361985689343,46.3769
1361985749343,46.4940
1361985809343,46.2813
1361985869343,46.3884
1361985929343,46.3519
1361985989343,46.1238
1361986049343,46.2668
1361986109343,46.2576
1361986169343,46.0874
1361986229343,46.3231
1361986289343,46.4089
1361986349343,46.3003
1361986409343,46.3043
1361986469343,46.3245
1361986529343,46.4227
1361986589343,46.4085
1361986649343,46.4729
1361986709343,46.3895
1361986769343,46.4358
1361986829343,46.4469
1361986889343,46.4391
1361986949343,46.4929
1361987009343,46.3657
1361987069343,46.3344
1361987129343,46.5640
1361987189343,46.3773
1361987249343,46.5888
1361987309343,46.4718
1361987369343,46.5388
1361987429343,46.4290
1361987489343,46.3895
1361987549343,46.3851
1361987609343,46.4671
1361987669343,46.3317
1361987729343,46.3396
1361987789343,46.4403
1361987849343,46.3910
1361987909343,46.1364
1361987969343,46.6312
1361988029353,46.4855
1361988089353,46.3317
1361988149353,46.4034
1361988209353,46.2774
1361988269353,46.5215
1361988329353,46.4089
1361988389353,46.4689
1361988449353,46.3495
1361988509353,46.4257
1361988569353,46.4724
1361988629353,46.4123
1361988689353,46.3078
1361988749353,46.4396
1361988809353,46.4015
1361988869353,46.4718
1361988929353,46.5751
1361988989353,46.4142
1361989049353,46.3235